Tracking 31027 objects as of 19-Jul-2025
HD Live streaming from Space Station
objects crossing your sky now

STARLINK-32639

Track STARLINK-32639 now!
10-day predictions
STARLINK-32639 is classified as:


NORAD ID: 62153
Int'l Code: 2024-224Q
Perigee: 489.6 km
Apogee: 490.6 km
Inclination: 43.0 °
Period: 94.3 minutes
Semi major axis: 6861 km
RCS: Unknown
Launch date: November 30, 2024
Source: (USA)
Launch site: AIR FORCE EASTERN TEST RANGE (AFETR)
Your satellite tracking list
NOAA 16 DEB
Track 1 satellite(s)




NASA's NSSDC Master Catalog

Two Line Element Set (TLE):
1 62153U 24224Q   25199.84112048  .00018693  00000-0  68663-3 0  9994
2 62153  42.9977  38.9476 0000706 262.8907  97.1864 15.27601862 36553
Source of the keplerian elements: AFSPC